contact: severine.martini@mio.osupytheas.fr, dominique.lefevre@mio.osupytheas.fr
Project:EMSO Ligure-ouest http://www.emso-fr.org/EMSO-France
Sensor Microcat Sea-Bird SBE37 SMP,  Serial 57510 
DOI : "https://doi.org/10.17882/97948" 
Title:EMSO Ligure Ouest : Data Bathybot capteur Microcat - deploiement 2023-04-28
Datetime,Profondeur,Latitude,Longitude,Temperature,Conductivite,Pression,Salinite
time,m,degree_north,degree_east,degree_C,S/m,db,PSU 
2023-11-11T00:00:50,2420,42.8014,5.9826,13.2982,4.53745,2453.537,37.9054
2023-11-11T00:03:49,2420,42.8014,5.9826,13.2982,4.53776,2453.528,37.9084
2023-11-11T00:06:49,2420,42.8014,5.9826,13.2980,4.53799,2453.537,37.9107
2023-11-11T00:09:49,2420,42.8014,5.9826,13.2980,4.53820,2453.537,37.9126
2023-11-11T00:12:49,2420,42.8014,5.9826,13.2982,4.53831,2453.522,37.9135
2023-11-11T00:15:49,2420,42.8014,5.9826,13.2980,4.53853,2453.491,37.9158
2023-11-11T00:18:49,2420,42.8014,5.9826,13.2984,4.53862,2453.514,37.9162
2023-11-11T00:21:49,2420,42.8014,5.9826,13.2977,4.53876,2453.537,37.9183
2023-11-11T00:24:49,2420,42.8014,5.9826,13.2982,4.53903,2453.537,37.9203
2023-11-11T00:27:49,2420,42.8014,5.9826,13.2979,4.53910,2453.559,37.9212
2023-11-11T00:30:49,2420,42.8014,5.9826,13.2982,4.53916,2453.514,37.9215
2023-11-11T00:33:49,2420,42.8014,5.9826,13.2985,4.53919,2453.537,37.9215
2023-11-11T00:36:49,2420,42.8014,5.9826,13.2984,4.53923,2453.514,37.9220
2023-11-11T00:39:49,2420,42.8014,5.9826,13.2984,4.53917,2453.491,37.9215
2023-11-11T00:42:49,2420,42.8014,5.9826,13.2981,4.53921,2453.514,37.9221
2023-11-11T00:45:49,2420,42.8014,5.9826,13.2981,4.53951,2453.528,37.9249
2023-11-11T00:48:49,2420,42.8014,5.9826,13.2981,4.53951,2453.514,37.9249
2023-11-11T00:51:49,2420,42.8014,5.9826,13.2981,4.53973,2453.537,37.9270
2023-11-11T00:54:49,2420,42.8014,5.9826,13.2982,4.53966,2453.528,37.9263
2023-11-11T00:57:49,2420,42.8014,5.9826,13.2983,4.53976,2453.559,37.9270
2023-11-11T01:00:50,2420,42.8014,5.9826,13.2983,4.53976,2453.514,37.9270
2023-11-11T01:03:49,2420,42.8014,5.9826,13.2986,4.53973,2453.491,37.9265
2023-11-11T01:06:49,2420,42.8014,5.9826,13.2982,4.53987,2453.491,37.9283
2023-11-11T01:09:49,2420,42.8014,5.9826,13.2985,4.53998,2453.537,37.9289
2023-11-11T01:12:49,2420,42.8014,5.9826,13.2986,4.53998,2453.537,37.9288
2023-11-11T01:15:49,2420,42.8014,5.9826,13.2985,4.53995,2453.559,37.9287
2023-11-11T01:18:49,2420,42.8014,5.9826,13.2980,4.54000,2453.559,37.9296
2023-11-11T01:21:49,2420,42.8014,5.9826,13.2986,4.54003,2453.537,37.9294
2023-11-11T01:24:49,2420,42.8014,5.9826,13.2987,4.54011,2453.537,37.9299
2023-11-11T01:27:49,2420,42.8014,5.9826,13.2985,4.54020,2453.544,37.9310
2023-11-11T01:30:50,2420,42.8014,5.9826,13.2985,4.54029,2453.537,37.9319
2023-11-11T01:33:49,2420,42.8014,5.9826,13.2979,4.54027,2453.514,37.9322
2023-11-11T01:36:49,2420,42.8014,5.9826,13.2986,4.54032,2453.522,37.9321
2023-11-11T01:39:49,2420,42.8014,5.9826,13.2981,4.54044,2453.514,37.9337
2023-11-11T01:42:49,2420,42.8014,5.9826,13.2983,4.54047,2453.514,37.9337
2023-11-11T01:45:49,2420,42.8014,5.9826,13.2984,4.54039,2453.514,37.9329
2023-11-11T01:48:49,2420,42.8014,5.9826,13.2983,4.54031,2453.537,37.9322
2023-11-11T01:51:49,2420,42.8014,5.9826,13.2987,4.54039,2453.551,37.9326
2023-11-11T01:54:49,2420,42.8014,5.9826,13.2986,4.54049,2453.499,37.9337
2023-11-11T01:57:49,2420,42.8014,5.9826,13.2980,4.54057,2453.559,37.9350
2023-11-11T02:00:49,2420,42.8014,5.9826,13.2981,4.54058,2453.537,37.9350
2023-11-11T02:03:49,2420,42.8014,5.9826,13.2979,4.54049,2453.559,37.9343
2023-11-11T02:06:49,2420,42.8014,5.9826,13.2982,4.54051,2453.514,37.9343
2023-11-11T02:09:49,2420,42.8014,5.9826,13.2983,4.54058,2453.537,37.9348
2023-11-11T02:12:49,2420,42.8014,5.9826,13.2983,4.54067,2453.537,37.9356
2023-11-11T02:15:49,2420,42.8014,5.9826,13.2980,4.54075,2453.559,37.9366
2023-11-11T02:18:49,2420,42.8014,5.9826,13.2985,4.54078,2453.544,37.9365
2023-11-11T02:21:49,2420,42.8014,5.9826,13.2982,4.54070,2453.537,37.9360
2023-11-11T02:24:49,2420,42.8014,5.9826,13.2980,4.54075,2453.544,37.9367
2023-11-11T02:27:49,2420,42.8014,5.9826,13.2983,4.54066,2453.559,37.9355
2023-11-11T02:30:49,2420,42.8014,5.9826,13.2985,4.54072,2453.559,37.9359
2023-11-11T02:33:49,2420,42.8014,5.9826,13.2986,4.54058,2453.596,37.9345
2023-11-11T02:36:49,2420,42.8014,5.9826,13.2988,4.54050,2453.567,37.9335
2023-11-11T02:39:49,2420,42.8014,5.9826,13.2987,4.54037,2453.582,37.9324
2023-11-11T02:42:49,2420,42.8014,5.9826,13.2985,4.54056,2453.582,37.9344
2023-11-11T02:45:49,2420,42.8014,5.9826,13.2985,4.54049,2453.582,37.9337
2023-11-11T02:48:49,2420,42.8014,5.9826,13.2982,4.54047,2453.567,37.9338
2023-11-11T02:51:49,2420,42.8014,5.9826,13.2983,4.54048,2453.596,37.9338
2023-11-11T02:54:49,2420,42.8014,5.9826,13.2986,4.54055,2453.582,37.9342
2023-11-11T02:57:49,2420,42.8014,5.9826,13.2982,4.54056,2453.604,37.9347
2023-11-11T03:00:49,2420,42.8014,5.9826,13.2984,4.54054,2453.612,37.9343
2023-11-11T03:03:49,2420,42.8014,5.9826,13.2988,4.54048,2453.582,37.9333
2023-11-11T03:06:49,2420,42.8014,5.9826,13.2985,4.53887,2453.582,37.9185
2023-11-11T03:09:49,2420,42.8014,5.9826,13.2987,4.53881,2453.604,37.9177
2023-11-11T03:12:49,2420,42.8014,5.9826,13.2987,4.53890,2453.590,37.9186
2023-11-11T03:15:49,2420,42.8014,5.9826,13.2981,4.53884,2453.567,37.9186
2023-11-11T03:18:49,2420,42.8014,5.9826,13.2987,4.53888,2453.604,37.9183
2023-11-11T03:21:49,2420,42.8014,5.9826,13.2982,4.53881,2453.627,37.9182
2023-11-11T03:24:49,2420,42.8014,5.9826,13.2985,4.53902,2453.604,37.9199
2023-11-11T03:27:49,2420,42.8014,5.9826,13.2983,4.53906,2453.590,37.9205
2023-11-11T03:30:49,2420,42.8014,5.9826,13.2981,4.53901,2453.582,37.9201
2023-11-11T03:33:49,2420,42.8014,5.9826,13.2983,4.53904,2453.604,37.9203
2023-11-11T03:36:49,2420,42.8014,5.9826,13.2984,4.53874,2453.604,37.9173
2023-11-11T03:39:49,2420,42.8014,5.9826,13.2988,4.53893,2453.627,37.9188
2023-11-11T03:42:49,2420,42.8014,5.9826,13.2987,4.53901,2453.649,37.9195
2023-11-11T03:45:49,2420,42.8014,5.9826,13.2986,4.53903,2453.604,37.9199
2023-11-11T03:48:49,2420,42.8014,5.9826,13.2982,4.53862,2453.612,37.9164
2023-11-11T03:51:49,2420,42.8014,5.9826,13.2985,4.53870,2453.649,37.9168
2023-11-11T03:54:49,2420,42.8014,5.9826,13.2984,4.54356,2453.590,37.9627
2023-11-11T03:57:49,2420,42.8014,5.9826,13.2988,4.54076,2453.649,37.9360
2023-11-11T04:00:49,2420,42.8014,5.9826,13.2986,4.53873,2453.627,37.9170
2023-11-11T04:03:49,2420,42.8014,5.9826,13.2990,4.53881,2453.649,37.9173
2023-11-11T04:06:49,2420,42.8014,5.9826,13.2985,4.53882,2453.672,37.9180
2023-11-11T04:09:49,2420,42.8014,5.9826,13.2979,4.53878,2453.649,37.9181
2023-11-11T04:12:49,2420,42.8014,5.9826,13.2990,4.53884,2453.672,37.9177
2023-11-11T04:15:49,2420,42.8014,5.9826,13.2986,4.53940,2453.627,37.9233
2023-11-11T04:18:49,2420,42.8014,5.9826,13.2986,4.53941,2453.649,37.9234
2023-11-11T04:21:49,2420,42.8014,5.9826,13.2986,4.53941,2453.695,37.9234
2023-11-11T04:24:49,2420,42.8014,5.9826,13.2986,4.53946,2453.627,37.9239
2023-11-11T04:27:49,2420,42.8014,5.9826,13.2982,4.53942,2453.672,37.9239
2023-11-11T04:30:49,2420,42.8014,5.9826,13.2984,4.53944,2453.657,37.9239
2023-11-11T04:33:49,2420,42.8014,5.9826,13.2986,4.53948,2453.635,37.9241
2023-11-11T04:36:49,2420,42.8014,5.9826,13.2982,4.53944,2453.672,37.9241
2023-11-11T04:39:49,2420,42.8014,5.9826,13.2986,4.53957,2453.649,37.9250
2023-11-11T04:42:49,2420,42.8014,5.9826,13.2988,4.53937,2453.649,37.9228
2023-11-11T04:45:49,2420,42.8014,5.9826,13.2989,4.53962,2453.672,37.9250
2023-11-11T04:48:49,2420,42.8014,5.9826,13.2987,4.53960,2453.635,37.9251
2023-11-11T04:51:49,2420,42.8014,5.9826,13.2987,4.53956,2453.695,37.9248
2023-11-11T04:54:49,2420,42.8014,5.9826,13.2988,4.53951,2453.657,37.9242
2023-11-11T04:57:49,2420,42.8014,5.9826,13.2991,4.53959,2453.635,37.9247
2023-11-11T05:00:49,2420,42.8014,5.9826,13.2990,4.53949,2453.649,37.9238
2023-11-11T05:03:49,2420,42.8014,5.9826,13.2986,4.53962,2453.641,37.9254
2023-11-11T05:06:49,2420,42.8014,5.9826,13.2988,4.53954,2453.687,37.9244
2023-11-11T05:09:49,2420,42.8014,5.9826,13.2986,4.53955,2453.672,37.9247
2023-11-11T05:12:49,2420,42.8014,5.9826,13.2985,4.53960,2453.657,37.9254
2023-11-11T05:15:49,2420,42.8014,5.9826,13.2985,4.53956,2453.672,37.9250
2023-11-11T05:18:49,2420,42.8014,5.9826,13.2986,4.53960,2453.672,37.9252
2023-11-11T05:21:49,2420,42.8014,5.9826,13.2986,4.53962,2453.627,37.9253
2023-11-11T05:24:49,2420,42.8014,5.9826,13.2987,4.53961,2453.672,37.9252
2023-11-11T05:27:49,2420,42.8014,5.9826,13.2985,4.53967,2453.672,37.9260
2023-11-11T05:30:49,2420,42.8014,5.9826,13.2990,4.53970,2453.695,37.9258
2023-11-11T05:33:49,2420,42.8014,5.9826,13.2985,4.53970,2453.657,37.9262
2023-11-11T05:36:49,2420,42.8014,5.9826,13.2985,4.53970,2453.695,37.9262
2023-11-11T05:39:49,2420,42.8014,5.9826,13.2989,4.53987,2453.695,37.9275
2023-11-11T05:42:49,2420,42.8014,5.9826,13.2982,4.53985,2453.635,37.9280
2023-11-11T05:45:49,2420,42.8014,5.9826,13.2988,4.53982,2453.657,37.9271
2023-11-11T05:48:49,2420,42.8014,5.9826,13.2987,4.53976,2453.687,37.9266
2023-11-11T05:51:49,2420,42.8014,5.9826,13.2986,4.53984,2453.709,37.9274
2023-11-11T05:54:49,2420,42.8014,5.9826,13.2988,4.53975,2453.709,37.9264
2023-11-11T05:57:49,2420,42.8014,5.9826,13.2985,4.53984,2453.672,37.9276
2023-11-11T06:00:49,2420,42.8014,5.9826,13.2984,4.53978,2453.672,37.9271
2023-11-11T06:03:49,2420,42.8014,5.9826,13.2986,4.53990,2453.672,37.9281
2023-11-11T06:06:49,2420,42.8014,5.9826,13.2985,4.53992,2453.709,37.9283
2023-11-11T06:09:49,2420,42.8014,5.9826,13.2989,4.53993,2453.695,37.9280
2023-11-11T06:12:49,2420,42.8014,5.9826,13.2987,4.54001,2453.680,37.9290
2023-11-11T06:15:49,2420,42.8014,5.9826,13.2986,4.54003,2453.641,37.9293
2023-11-11T06:18:49,2420,42.8014,5.9826,13.2986,4.53997,2453.672,37.9286
2023-11-11T06:21:49,2420,42.8014,5.9826,13.2985,4.54006,2453.695,37.9296
2023-11-11T06:24:49,2420,42.8014,5.9826,13.2988,4.54000,2453.695,37.9287
2023-11-11T06:27:49,2420,42.8014,5.9826,13.2988,4.54000,2453.649,37.9288
2023-11-11T06:30:49,2420,42.8014,5.9826,13.2986,4.53992,2453.672,37.9282
2023-11-11T06:33:49,2420,42.8014,5.9826,13.2989,4.54009,2453.695,37.9295
2023-11-11T06:36:49,2420,42.8014,5.9826,13.2991,4.54001,2453.672,37.9286
2023-11-11T06:39:49,2420,42.8014,5.9826,13.2986,4.54006,2453.695,37.9295
2023-11-11T06:42:49,2420,42.8014,5.9826,13.2986,4.54009,2453.695,37.9298
2023-11-11T06:45:49,2420,42.8014,5.9826,13.2984,4.54009,2453.672,37.9301
2023-11-11T06:48:49,2420,42.8014,5.9826,13.2985,4.54003,2453.657,37.9294
2023-11-11T06:51:49,2420,42.8014,5.9826,13.2988,4.54013,2453.672,37.9300
2023-11-11T06:54:49,2420,42.8014,5.9826,13.2988,4.53997,2453.672,37.9285
2023-11-11T06:57:49,2420,42.8014,5.9826,13.2988,4.54011,2453.695,37.9298
2023-11-11T07:00:50,2420,42.8014,5.9826,13.2989,4.54005,2453.672,37.9291
2023-11-11T07:03:49,2420,42.8014,5.9826,13.2986,4.54014,2453.649,37.9302
2023-11-11T07:06:49,2420,42.8014,5.9826,13.2985,4.54018,2453.695,37.9308
2023-11-11T07:09:49,2420,42.8014,5.9826,13.2989,4.54025,2453.672,37.9310
2023-11-11T07:12:49,2420,42.8014,5.9826,13.2986,4.54014,2453.672,37.9302
2023-11-11T07:15:49,2420,42.8014,5.9826,13.2987,4.54017,2453.649,37.9305
2023-11-11T07:18:49,2420,42.8014,5.9826,13.2987,4.54033,2453.649,37.9320
2023-11-11T07:21:49,2420,42.8014,5.9826,13.2986,4.54021,2453.635,37.9309
2023-11-11T07:24:49,2420,42.8014,5.9826,13.2986,4.54029,2453.672,37.9317
2023-11-11T07:27:49,2420,42.8014,5.9826,13.2991,4.54023,2453.672,37.9306
2023-11-11T07:30:49,2420,42.8014,5.9826,13.2984,4.54019,2453.672,37.9309
2023-11-11T07:33:49,2420,42.8014,5.9826,13.2984,4.54034,2453.649,37.9323
2023-11-11T07:36:49,2420,42.8014,5.9826,13.2986,4.54026,2453.612,37.9314
2023-11-11T07:39:49,2420,42.8014,5.9826,13.2988,4.54031,2453.672,37.9317
2023-11-11T07:42:49,2420,42.8014,5.9826,13.2988,4.54042,2453.672,37.9327
2023-11-11T07:45:49,2420,42.8014,5.9826,13.2985,4.54041,2453.672,37.9329
2023-11-11T07:48:49,2420,42.8014,5.9826,13.2988,4.54031,2453.627,37.9317
2023-11-11T07:51:49,2420,42.8014,5.9826,13.2988,4.54037,2453.649,37.9323
2023-11-11T07:54:49,2420,42.8014,5.9826,13.2988,4.54041,2453.627,37.9327
2023-11-11T07:57:49,2420,42.8014,5.9826,13.2989,4.54049,2453.612,37.9333
2023-11-11T08:00:49,2420,42.8014,5.9826,13.2989,4.54057,2453.649,37.9341
2023-11-11T08:03:49,2420,42.8014,5.9826,13.2986,4.54041,2453.635,37.9329
2023-11-11T08:06:49,2420,42.8014,5.9826,13.2987,4.54048,2453.627,37.9334
2023-11-11T08:09:49,2420,42.8014,5.9826,13.2986,4.54056,2453.627,37.9342
2023-11-11T08:12:49,2420,42.8014,5.9826,13.2989,4.54048,2453.649,37.9332
2023-11-11T08:15:49,2420,42.8014,5.9826,13.2989,4.54053,2453.649,37.9337
2023-11-11T08:18:49,2420,42.8014,5.9826,13.2989,4.54050,2453.649,37.9334
2023-11-11T08:21:49,2420,42.8014,5.9826,13.2990,4.54056,2453.635,37.9338
2023-11-11T08:24:50,2420,42.8014,5.9826,13.2985,4.54057,2453.627,37.9345
2023-11-11T08:27:49,2420,42.8014,5.9826,13.2989,4.54059,2453.627,37.9342
2023-11-11T08:30:49,2420,42.8014,5.9826,13.2985,4.54056,2453.649,37.9344
2023-11-11T08:33:49,2420,42.8014,5.9826,13.2987,4.54060,2453.627,37.9345
2023-11-11T08:36:49,2420,42.8014,5.9826,13.2988,4.54065,2453.649,37.9350
2023-11-11T08:39:49,2420,42.8014,5.9826,13.2988,4.54061,2453.604,37.9345
2023-11-11T08:42:49,2420,42.8014,5.9826,13.2988,4.54070,2453.635,37.9354
2023-11-11T08:45:49,2420,42.8014,5.9826,13.2987,4.54068,2453.604,37.9353
2023-11-11T08:48:49,2420,42.8014,5.9826,13.2980,4.54067,2453.627,37.9359
2023-11-11T08:51:49,2420,42.8014,5.9826,13.2987,4.54063,2453.604,37.9348
2023-11-11T08:54:49,2420,42.8014,5.9826,13.2986,4.54082,2453.627,37.9367
2023-11-11T08:57:49,2420,42.8014,5.9826,13.2984,4.54073,2453.641,37.9360
2023-11-11T09:00:50,2420,42.8014,5.9826,13.2982,4.54069,2453.604,37.9359
2023-11-11T09:03:49,2420,42.8014,5.9826,13.2988,4.54081,2453.627,37.9364
2023-11-11T09:06:49,2420,42.8014,5.9826,13.2985,4.54070,2453.627,37.9357
2023-11-11T09:09:49,2420,42.8014,5.9826,13.2989,4.54071,2453.582,37.9354
2023-11-11T09:12:49,2420,42.8014,5.9826,13.2986,4.54071,2453.604,37.9357
2023-11-11T09:15:49,2420,42.8014,5.9826,13.2981,4.54068,2453.604,37.9359
2023-11-11T09:18:49,2420,42.8014,5.9826,13.2985,4.54073,2453.604,37.9360
2023-11-11T09:21:49,2420,42.8014,5.9826,13.2984,4.54084,2453.604,37.9371
2023-11-11T09:24:49,2420,42.8014,5.9826,13.2985,4.54079,2453.604,37.9366
2023-11-11T09:27:49,2420,42.8014,5.9826,13.2986,4.54083,2453.612,37.9368
2023-11-11T09:30:49,2420,42.8014,5.9826,13.2979,4.54084,2453.604,37.9375
2023-11-11T09:33:49,2420,42.8014,5.9826,13.2984,4.54080,2453.619,37.9367
2023-11-11T09:36:49,2420,42.8014,5.9826,13.2986,4.54095,2453.567,37.9380
2023-11-11T09:39:49,2420,42.8014,5.9826,13.2989,4.54090,2453.604,37.9372
2023-11-11T09:42:49,2420,42.8014,5.9826,13.2984,4.54090,2453.559,37.9377
2023-11-11T09:45:49,2420,42.8014,5.9826,13.2984,4.54088,2453.559,37.9375
2023-11-11T09:48:49,2420,42.8014,5.9826,13.2981,4.54087,2453.604,37.9376
2023-11-11T09:51:49,2420,42.8014,5.9826,13.2986,4.54086,2453.604,37.9370
2023-11-11T09:54:49,2420,42.8014,5.9826,13.2983,4.54092,2453.604,37.9379
2023-11-11T09:57:49,2420,42.8014,5.9826,13.2985,4.54092,2453.582,37.9377
2023-11-11T10:00:49,2420,42.8014,5.9826,13.2988,4.54089,2453.567,37.9373
2023-11-11T10:03:49,2420,42.8014,5.9826,13.2984,4.54098,2453.559,37.9384
2023-11-11T10:06:49,2420,42.8014,5.9826,13.2986,4.54100,2453.604,37.9384
2023-11-11T10:09:49,2420,42.8014,5.9826,13.2980,4.54107,2453.582,37.9397
2023-11-11T10:12:49,2420,42.8014,5.9826,13.2985,4.54095,2453.582,37.9380
2023-11-11T10:15:49,2420,42.8014,5.9826,13.2989,4.54108,2453.559,37.9389
2023-11-11T10:18:49,2420,42.8014,5.9826,13.2985,4.54100,2453.582,37.9385
2023-11-11T10:21:49,2420,42.8014,5.9826,13.2984,4.54100,2453.582,37.9387
2023-11-11T10:24:49,2420,42.8014,5.9826,13.2986,4.54103,2453.604,37.9386
2023-11-11T10:27:49,2420,42.8014,5.9826,13.2985,4.54115,2453.537,37.9399
2023-11-11T10:30:49,2420,42.8014,5.9826,13.2981,4.54101,2453.559,37.9390
2023-11-11T10:33:49,2420,42.8014,5.9826,13.2987,4.54106,2453.567,37.9389
2023-11-11T10:36:49,2420,42.8014,5.9826,13.2983,4.54106,2453.559,37.9393
2023-11-11T10:39:49,2420,42.8014,5.9826,13.2985,4.54109,2453.582,37.9394
2023-11-11T10:42:49,2420,42.8014,5.9826,13.2979,4.54115,2453.559,37.9405
2023-11-11T10:45:49,2420,42.8014,5.9826,13.2983,4.54115,2453.559,37.9401
2023-11-11T10:48:49,2420,42.8014,5.9826,13.2986,4.54113,2453.559,37.9396
2023-11-11T10:51:49,2420,42.8014,5.9826,13.2986,4.54114,2453.544,37.9398
2023-11-11T10:54:49,2420,42.8014,5.9826,13.2986,4.54114,2453.537,37.9397
2023-11-11T10:57:50,2420,42.8014,5.9826,13.2980,4.54117,2453.574,37.9406
2023-11-11T11:00:49,2420,42.8014,5.9826,13.2986,4.54114,2453.559,37.9397
2023-11-11T11:03:49,2420,42.8014,5.9826,13.2982,4.54113,2453.544,37.9401
2023-11-11T11:06:49,2420,42.8014,5.9826,13.2982,4.54117,2453.559,37.9404
2023-11-11T11:09:49,2420,42.8014,5.9826,13.2983,4.54123,2453.544,37.9409
2023-11-11T11:12:49,2420,42.8014,5.9826,13.2982,4.54124,2453.537,37.9411
2023-11-11T11:15:49,2420,42.8014,5.9826,13.2979,4.54126,2453.514,37.9416
2023-11-11T11:18:49,2420,42.8014,5.9826,13.2982,4.54117,2453.537,37.9404
2023-11-11T11:21:50,2420,42.8014,5.9826,13.2989,4.54126,2453.559,37.9406
2023-11-11T11:24:49,2420,42.8014,5.9826,13.2983,4.54126,2453.559,37.9411
2023-11-11T11:27:49,2420,42.8014,5.9826,13.2985,4.54124,2453.559,37.9408
2023-11-11T11:30:49,2420,42.8014,5.9826,13.2985,4.54133,2453.559,37.9417
2023-11-11T11:33:50,2420,42.8014,5.9826,13.2985,4.54134,2453.559,37.9417
2023-11-11T11:36:49,2420,42.8014,5.9826,13.2985,4.54136,2453.537,37.9419
2023-11-11T11:39:49,2420,42.8014,5.9826,13.2985,4.54134,2453.559,37.9418
2023-11-11T11:42:49,2420,42.8014,5.9826,13.2983,4.54131,2453.514,37.9417
2023-11-11T11:45:49,2420,42.8014,5.9826,13.2981,4.54136,2453.537,37.9423
2023-11-11T11:48:49,2420,42.8014,5.9826,13.2983,4.54140,2453.537,37.9425
2023-11-11T11:51:49,2420,42.8014,5.9826,13.2985,4.54132,2453.559,37.9416
2023-11-11T11:54:49,2420,42.8014,5.9826,13.2985,4.54141,2453.514,37.9424
2023-11-11T11:57:49,2420,42.8014,5.9826,13.2982,4.54141,2453.537,37.9427
2023-11-11T12:00:49,2420,42.8014,5.9826,13.2981,4.54140,2453.499,37.9427
2023-11-11T12:03:49,2420,42.8014,5.9826,13.2982,4.54140,2453.537,37.9426
2023-11-11T12:06:49,2420,42.8014,5.9826,13.2986,4.54127,2453.537,37.9409
2023-11-11T12:09:49,2420,42.8014,5.9826,13.2980,4.54138,2453.537,37.9426
2023-11-11T12:12:49,2420,42.8014,5.9826,13.2982,4.54141,2453.537,37.9427
2023-11-11T12:15:49,2420,42.8014,5.9826,13.2988,4.54145,2453.537,37.9425
2023-11-11T12:18:49,2420,42.8014,5.9826,13.2980,4.54147,2453.537,37.9434
2023-11-11T12:21:49,2420,42.8014,5.9826,13.2984,4.54137,2453.537,37.9421
2023-11-11T12:24:49,2420,42.8014,5.9826,13.2988,4.54123,2453.537,37.9404
2023-11-11T12:27:49,2420,42.8014,5.9826,13.2982,4.54134,2453.514,37.9421
2023-11-11T12:30:49,2420,42.8014,5.9826,13.2983,4.54142,2453.537,37.9427
2023-11-11T12:33:49,2420,42.8014,5.9826,13.2983,4.54145,2453.537,37.9429
2023-11-11T12:36:49,2420,42.8014,5.9826,13.2980,4.54142,2453.559,37.9429
2023-11-11T12:39:49,2420,42.8014,5.9826,13.2985,4.54158,2453.514,37.9440
2023-11-11T12:42:49,2420,42.8014,5.9826,13.2982,4.54153,2453.537,37.9438
2023-11-11T12:45:49,2420,42.8014,5.9826,13.2985,4.54157,2453.514,37.9440
2023-11-11T12:48:49,2420,42.8014,5.9826,13.2982,4.54147,2453.537,37.9433
2023-11-11T12:51:49,2420,42.8014,5.9826,13.2983,4.54150,2453.537,37.9434
2023-11-11T12:54:49,2420,42.8014,5.9826,13.2984,4.54156,2453.514,37.9440
2023-11-11T12:57:49,2420,42.8014,5.9826,13.2982,4.54162,2453.514,37.9447
2023-11-11T13:00:49,2420,42.8014,5.9826,13.2983,4.54167,2453.514,37.9450
2023-11-11T13:03:50,2420,42.8014,5.9826,13.2984,4.54156,2453.514,37.9439
2023-11-11T13:06:49,2420,42.8014,5.9826,13.2982,4.54158,2453.537,37.9443
2023-11-11T13:09:49,2420,42.8014,5.9826,13.2985,4.54160,2453.551,37.9442
2023-11-11T13:12:49,2420,42.8014,5.9826,13.2983,4.54156,2453.551,37.9440
2023-11-11T13:15:49,2420,42.8014,5.9826,13.2984,4.54155,2453.514,37.9438
2023-11-11T13:18:49,2420,42.8014,5.9826,13.2982,4.54141,2453.559,37.9427
2023-11-11T13:21:49,2420,42.8014,5.9826,13.2985,4.54158,2453.537,37.9440
2023-11-11T13:24:49,2420,42.8014,5.9826,13.2983,4.54157,2453.537,37.9441
2023-11-11T13:27:49,2420,42.8014,5.9826,13.2982,4.54166,2453.522,37.9451
2023-11-11T13:30:49,2420,42.8014,5.9826,13.2984,4.54155,2453.514,37.9438
2023-11-11T13:33:49,2420,42.8014,5.9826,13.2988,4.54159,2453.522,37.9439
2023-11-11T13:36:49,2420,42.8014,5.9826,13.2991,4.54159,2453.559,37.9436
2023-11-11T13:39:49,2420,42.8014,5.9826,13.2982,4.54171,2453.559,37.9456
2023-11-11T13:42:49,2420,42.8014,5.9826,13.2986,4.54162,2453.537,37.9443
2023-11-11T13:45:49,2420,42.8014,5.9826,13.2990,4.54169,2453.582,37.9445
2023-11-11T13:48:49,2420,42.8014,5.9826,13.2983,4.54162,2453.559,37.9446
2023-11-11T13:51:49,2420,42.8014,5.9826,13.2988,4.54162,2453.544,37.9441
2023-11-11T13:54:49,2420,42.8014,5.9826,13.2984,4.54174,2453.582,37.9456
2023-11-11T13:57:49,2420,42.8014,5.9826,13.2985,4.54161,2453.559,37.9444
2023-11-11T14:00:49,2420,42.8014,5.9826,13.2983,4.54169,2453.559,37.9452
2023-11-11T14:03:49,2420,42.8014,5.9826,13.2982,4.54169,2453.559,37.9454
2023-11-11T14:06:49,2420,42.8014,5.9826,13.2985,4.54169,2453.522,37.9451
2023-11-11T14:09:49,2420,42.8014,5.9826,13.2982,4.54175,2453.537,37.9459
2023-11-11T14:12:49,2420,42.8014,5.9826,13.2985,4.54170,2453.559,37.9452
2023-11-11T14:15:49,2420,42.8014,5.9826,13.2982,4.54175,2453.582,37.9459
2023-11-11T14:18:49,2420,42.8014,5.9826,13.2984,4.54169,2453.559,37.9451
2023-11-11T14:21:49,2420,42.8014,5.9826,13.2983,4.54177,2453.559,37.9460
2023-11-11T14:24:49,2420,42.8014,5.9826,13.2986,4.54176,2453.604,37.9456
2023-11-11T14:27:49,2420,42.8014,5.9826,13.2985,4.54169,2453.544,37.9450
2023-11-11T14:30:49,2420,42.8014,5.9826,13.2984,4.54187,2453.559,37.9468
2023-11-11T14:33:49,2420,42.8014,5.9826,13.2983,4.54181,2453.582,37.9464
2023-11-11T14:36:49,2420,42.8014,5.9826,13.2985,4.54176,2453.574,37.9457
2023-11-11T14:39:49,2420,42.8014,5.9826,13.2983,4.54189,2453.574,37.9471
2023-11-11T14:42:49,2420,42.8014,5.9826,13.2980,4.54186,2453.559,37.9471
2023-11-11T14:45:49,2420,42.8014,5.9826,13.2982,4.54182,2453.582,37.9466
2023-11-11T14:48:49,2420,42.8014,5.9826,13.2986,4.54182,2453.544,37.9461
2023-11-11T14:51:49,2420,42.8014,5.9826,13.2981,4.54187,2453.619,37.9471
2023-11-11T14:54:49,2420,42.8014,5.9826,13.2983,4.54191,2453.582,37.9473
2023-11-11T14:57:49,2420,42.8014,5.9826,13.2986,4.54197,2453.582,37.9475
2023-11-11T15:00:49,2420,42.8014,5.9826,13.2982,4.54193,2453.619,37.9476
2023-11-11T15:03:49,2420,42.8014,5.9826,13.2984,4.54181,2453.627,37.9463
2023-11-11T15:06:49,2420,42.8014,5.9826,13.2984,4.54184,2453.582,37.9466
2023-11-11T15:09:49,2420,42.8014,5.9826,13.2982,4.54206,2453.604,37.9488
2023-11-11T15:12:49,2420,42.8014,5.9826,13.2983,4.54209,2453.582,37.9490
2023-11-11T15:15:49,2420,42.8014,5.9826,13.2980,4.54201,2453.627,37.9485
2023-11-11T15:18:49,2420,42.8014,5.9826,13.2985,4.54203,2453.627,37.9483
2023-11-11T15:21:49,2420,42.8014,5.9826,13.2986,4.54209,2453.567,37.9487
2023-11-11T15:24:49,2420,42.8014,5.9826,13.2988,4.54205,2453.604,37.9481
2023-11-11T15:27:49,2420,42.8014,5.9826,13.2985,4.54200,2453.619,37.9479
2023-11-11T15:30:49,2420,42.8014,5.9826,13.2986,4.54204,2453.604,37.9482
2023-11-11T15:33:49,2420,42.8014,5.9826,13.2980,4.54212,2453.627,37.9496
2023-11-11T15:36:49,2420,42.8014,5.9826,13.2987,4.54209,2453.649,37.9486
2023-11-11T15:39:49,2420,42.8014,5.9826,13.2982,4.54225,2453.627,37.9507
2023-11-11T15:42:49,2420,42.8014,5.9826,13.2984,4.54207,2453.627,37.9487
2023-11-11T15:45:49,2420,42.8014,5.9826,13.2983,4.54220,2453.627,37.9500
2023-11-11T15:48:49,2420,42.8014,5.9826,13.2986,4.54211,2453.635,37.9489
2023-11-11T15:51:49,2420,42.8014,5.9826,13.2983,4.54215,2453.664,37.9495
2023-11-11T15:54:49,2420,42.8014,5.9826,13.2986,4.54214,2453.635,37.9491
2023-11-11T15:57:49,2420,42.8014,5.9826,13.2982,4.54224,2453.672,37.9505
2023-11-11T16:00:50,2420,42.8014,5.9826,13.2982,4.54220,2453.649,37.9501
2023-11-11T16:03:49,2420,42.8014,5.9826,13.2986,4.54220,2453.649,37.9498